1,427,286개(31919/71365페이지)
LECTURE
번호 제목 글쓴이 조회 날짜
788926 Playing An Excellent Video game: Footbal RodgersRice6856 7 2022.02.14 13:22
788925 The Only Secret Poker Strategy You Shoul PatelMayer2337 4 2022.02.14 13:21
788924 web judi slots online dengan variasi keu 사진 WootenWentworth1837 3 2022.02.14 13:21
788923 The Game Of Texas Holdem Poker NicholsTempleton9410 5 2022.02.14 13:21
788922 Give You The Most significant Social Net 사진 SalinasBean8455 10 2022.02.14 13:21
788921 Free Rules For Poker - Improve Your Poke SharmaKhan4805 6 2022.02.14 13:20
788920 What You Should Know About Video Games BergNeal2996 6 2022.02.14 13:20
788919 Rules For Texas Hold'em Poker For Beginn DrachmannTerkildsen8900 9 2022.02.14 13:20
788918 Taking part in A Fantastic Video game: B 사진 BassMathiasen2412 4 2022.02.14 13:19
788917 What Might Bluetooth Hearing Aids Do To DalgaardGibson5293 6 2022.02.14 13:19
788916 Provide Me 15 Minutes, I'll Give You The SchofieldDennis4109 4 2022.02.14 13:19
788915 Simple Steps To Getting Started With Mob DillonRye0928 4 2022.02.14 13:19
788914 Review Of Texas Hold Em Poker Book - Lea FlynnJespersen4588 6 2022.02.14 13:19
788913 火熱小说 我的徒弟都是大反派討論- 第1576章 远古龙魂(1) 貞鬆勁柏 夫是 사진 DyerMacias5762 8 2022.02.14 13:19
788912 Jakże Wyszczupleć W 3 Tygodnie 5 Kg - Be ParrottCarlsson9750 8 2022.02.14 13:18
788911 Actively playing An Incredible Online ga 사진 StensgaardMeyer7722 6 2022.02.14 13:18
788910 Buying Your Initial Poker Chip Establish ThurstonNicolaisen6160 5 2022.02.14 13:18
788909 private yacht charter in istanbul Things IsaksenMahoney5589 5 2022.02.14 13:18
788908 爱不释手的小说 我的徒弟都是大反派- 第1490章 太虚的本质(1) 萬事起頭難 사진 SejersenHsu8227 10 2022.02.14 13:17
788907 Learn Your Video Gaming With One Of Thes DelacruzSigmon8978 4 2022.02.14 13:17